Location: Archemont
(49.1579°N, 1.7598°E)
Time: 11:25:46
(UTC+00:00)

COSMO-SKYMED 1 - Pass Details

Date: 03 February 2023
Orbit: 621 x 623 km, 97.9° (Epoch: 30 March)

Event Time Altitude Azimuth Distance (km) Brightness Sun altitude
Rises 18:40:39 0° 8° (N) 2,921 5.9 -17.8°
Reaches altitude 10° 18:42:55 10° 2° (N) 2,009 5.1 -18.2°
Maximum altitude 18:47:05 45° 291° (WNW) 857 3.7 -18.9°
Drops below altitude 10° 18:51:12 10° 219° (SW) 1,993 5.7 -19.6°
Sets 18:53:27 0° 213° (SSW) 2,895 6.5 -19.9°
